Location: Olsztyn
(53.7767°N, 20.4765°E)
Time: 14:27:49
(UTC+02:00)

Vanguard 3 - All Passes

Search period start: 19 July 2024 00:00
Search period end: 29 July 2024 00:00
Orbit: 508 x 3230 km, 33.4° (Epoch: 18 July)

Date Brightness Start Highest point End Pass type
(mag) Time Alt. Az. Time Alt. Az. Time Alt. Az.
19 Jul - 00:26:08 10° S 00:36:54 23° SE 00:49:53 10° ESE visible
19 Jul - 02:34:30 10° SW 02:49:01 36° SSE 03:05:30 10° ESE visible
19 Jul - 04:46:21 10° WSW 05:02:19 36° SSW 05:17:58 10° SE daylight
19 Jul - 07:01:19 10° WSW 07:14:47 24° SW 07:26:46 10° S daylight
19 Jul - 23:11:52 10° SSE 23:18:29 14° SE 23:26:05 10° ESE visible
20 Jul - 01:16:50 10° SSW 01:29:23 31° SSE 01:44:44 10° ESE visible
20 Jul - 03:27:02 10° WSW 03:42:14 38° S 03:58:51 10° ESE visible
20 Jul - 05:40:08 10° WSW 05:55:21 31° SSW 06:09:50 10° SSE daylight
20 Jul - 07:57:54 10° WSW 08:06:56 15° SW 08:15:12 10° SSW daylight
21 Jul - 00:00:26 10° S 00:10:22 23° SE 00:22:52 10° ESE visible
21 Jul - 02:08:37 10° SW 02:22:16 36° SSE 02:38:45 10° ESE visible
21 Jul - 04:20:08 10° WSW 04:35:28 36° SSW 04:51:32 10° SE daylight
21 Jul - 06:34:47 10° WSW 06:48:02 24° SW 07:00:27 10° S daylight
21 Jul - 22:46:18 10° SSE 22:52:07 14° SE 22:58:55 10° ESE visible
22 Jul - 00:51:10 10° SSW 01:02:45 30° SSE 01:17:44 10° ESE visible
22 Jul - 03:01:05 10° WSW 03:15:24 37° S 03:32:08 10° ESE visible
22 Jul - 05:13:50 10° WSW 05:28:31 31° SSW 05:43:21 10° SSE daylight
22 Jul - 07:31:29 10° WSW 07:40:14 15° SW 07:48:33 10° SSW daylight
22 Jul - 23:34:53 10° S 23:43:56 22° SE 23:55:41 10° ESE visible
23 Jul - 01:42:54 10° SW 01:55:33 35° SSE 02:11:46 10° ESE visible
23 Jul - 03:54:07 10° WSW 04:08:36 35° SSW 04:24:49 10° SE visible
23 Jul - 06:08:26 10° WSW 06:21:13 23° SW 06:33:49 10° S daylight
23 Jul - 22:20:58 10° SSE 22:25:51 13° SE 22:31:34 10° ESE visible
24 Jul - 00:25:37 10° SSW 00:36:14 29° SSE 00:50:32 10° ESE visible
24 Jul - 02:35:18 10° WSW 02:48:38 36° S 03:05:10 10° SE visible
24 Jul - 04:47:43 10° WSW 05:01:38 29° SSW 05:16:35 10° SSE daylight
24 Jul - 07:05:21 10° WSW 07:13:29 14° SW 07:21:28 10° SSW daylight
24 Jul - 23:09:29 10° S 23:17:36 21° SE 23:28:22 10° ESE visible
25 Jul - 01:17:20 10° SW 01:28:57 34° SSE 01:44:35 10° ESE visible
25 Jul - 03:28:15 10° WSW 03:41:46 34° SSW 03:57:51 10° SE visible
25 Jul - 05:42:19 10° WSW 05:54:22 22° SW 06:06:52 10° S daylight
25 Jul - 21:55:56 10° SSE 21:59:41 12° SE 22:04:00 10° ESE visible
26 Jul - 00:00:13 10° SSW 00:09:49 28° SSE 00:23:12 10° ESE visible
26 Jul - 02:09:40 10° WSW 02:21:55 35° S 02:37:59 10° SE visible
26 Jul - 04:21:47 10° WSW 04:34:47 28° SSW 04:49:31 10° SSE daylight
26 Jul - 06:39:36 10° WSW 06:46:41 13° SW 06:53:52 10° SSW daylight
26 Jul - 22:44:13 10° S 22:51:23 20° SE 23:00:59 10° ESE visible
27 Jul - 00:51:53 10° SW 01:02:26 32° S 01:17:13 10° ESE visible
27 Jul - 03:02:33 10° WSW 03:15:01 32° SSW 03:30:37 10° SE visible
27 Jul - 05:16:25 10° WSW 05:27:32 20° SW 05:39:34 10° S daylight
27 Jul - 21:31:24 10° SE 21:33:37 11° SE 21:36:03 10° ESE visible
27 Jul - 23:34:56 10° SSW 23:43:32 27° SSE 23:55:46 10° ESE visible
28 Jul - 01:44:10 10° WSW 01:55:20 33° S 02:10:35 10° SE visible
28 Jul - 03:56:03 10° WSW 04:07:59 26° SSW 04:22:10 10° SSE visible
28 Jul - 06:14:28 10° WSW 06:19:55 12° SW 06:25:32 10° SSW daylight
28 Jul - 22:19:05 10° S 22:25:17 18° SE 22:33:33 10° ESE visible
